User: anonymous   Login
Location: Fort Wayne
(41.1310°N, 85.1290°W)
Time: 10:27:12
(UTC-04:00)
Language:

Iridium 37 - Orbit

View from above orbital plane
View from above orbital plane
View from above satellite
View from above satellite

Ground track
Ground track

The orbit data is extracted from the following two-line orbital elements,

1 24968U 97056D   17084.80622948 +.00000191 +00000-0 +61010-4 0  9998
2 24968 086.4007 353.7447 0002203 082.3634 277.7812 14.34223579020378
Epoch (UTC): 25 March 2017 19:20:58
Eccentricity: 0.0002203
inclination: 86.4007°
perigee height: 776 km
apogee height: 779 km
right ascension of ascending node: 353.7447°
argument of perigee: 82.3634°
revolutions per day: 14.34223579
mean anomaly at epoch: 277.7812°
orbit number at epoch: 2037

The dashed part of the orbit path shows where the satellite is in the earth's shadow,  

DLR